ATLAS 5 CENTAUR DEB, 43958

Orbit data source: Space-Track

ATLAS 5 CENTAUR DEB, 43958 is space debris in HEO originally from a launch on Wed, 17 Sep 2014 UTC launched from the Air Force Eastern Test Range (AFETR). Debris objects in space refer to the collection of defunct objects orbiting the Earth. Examples of debris include non-operational satellites, rocket bodies, and fragments generated from explosions, collisions, or faulty payload assembly.

Loading next visibility...
Identifier
43958, 2014-055M
Orbit
HEO
Country
Flag of USUS
Related business
Flag of USUnited Launch Alliance/Lockheed Martin (US)
Manufacturer
Unknown
Mission
Spacecraft
Bus & Motor
Unknown
Mass
Unknown
Launch date (UTC)
2014-09-17 (11 years ago)
Launch vehicle
Unknown
Launch site
Air Force Eastern Test Range (AFETR)
Object type
Payload
Rocket body
Debris
Shape & HBR
Unknown shape, 1.1 m
Radar Cross Section
Small (<0.1 m²)

Expand to show TLE details & history
Last TLE update: 1 day ago

TLE from 1 day ago
0 ATLAS 5 CENTAUR DEB
1 43958U 14055M   25346.43792294 -.00000016  00000-0  00000-0 0  9992
2 43958  20.0746 153.4057 4741632 148.4100 251.8036  1.89326120 50361
Epoch: 2025-12-12T10:30Z
TLE epoch observation values (Epoch: 2025-12-12T10:30:36.542Z)
Latitude
-0.00003°
Longitude
-85.61538°
Altitude
29,485.709 km
Speed
2.791 km/s
True Right ascension
10h 13m 39s
True Declination
0° 00' 00"
Sunlit
Object was in daylight at epoch
Visualization orbit readout
Latitude
Unknown
Longitude
Unknown
Altitude
Unknown
Speed
Unknown
Apparent Right ascension
Unknown
Apparent Declination
Unknown
Sunlit
N/A
Visualization observer readout
Local Sidereal Time
13:38:44
Azimuth
Unknown
Elevation
Unknown
Doppler factor
Unknown
Orbital elements
Apogee altitude
34,313.416 km
Perigee altitude
8,136.617 km
Semi-major axis
27,603.154 km
Eccentricity
0.47416
Inclination
20.0746°
RAAN
153.4057°
Arg. of periapsis
148.41°
True anomaly
211.64°
Mean anomaly
251.8036°
Eccentric anomaly
230.76173°
Mean motion
0.47327 °/min
Orbital period
760.67 mins
BSTAR
0
Loading maneuver chart data...
Computing Atmospheric mass density...

Documentation

Showing up to 5 results
|